Las Vegas, NV

8:14 PM PDT on September 19, 2017 (GMT -0700)
McCarran International

Weather History for KLAS - June, 2014

Change the Weather History Date:

Saturday, June 7, 2014

  Actual Average Record
Temperature  
Mean Temperature 91 °F 84 °F  
Max Temperature 104 °F 96 °F 109 °F (2013)
Min Temperature 77 °F 72 °F 52 °F (1950)
Degree Days  
Heating Degree Days 0 0  
Month to date heating degree days 0 0  
Since 1 June heating degree days 0 0  
Since 1 July heating degree days 1512 1950  
Cooling Degree Days 26 19  
Month to date cooling degree days 162 128  
Year to date cooling degree days 820 678  
Since 1 June cooling degree days 162 128  
Growing Degree Days 40 (Base 50)    
Moisture  
Dew Point 19 °F    
Average Humidity 10    
Maximum Humidity 16    
Minimum Humidity 3    
Precipitation  
Precipitation 0.00 in 0.00 in 0.18 in (1970)
Month to date precipitation 0.00 0.02  
Year to date precipitation 0.30 2.03  
Snow  
Snow 0.00 in 0.00 in 0.00 in ()
Month to date snowfall 0.0 0.0  
Since 1 June snowfall 0.0 0.0  
Since 1 July snowfall 0.0 0.3  
Snow Depth 0.00 in    
Sea Level Pressure  
Sea Level Pressure 29.58 in    
Wind  
Wind Speed 8 mph (SSW)    
Max Wind Speed 18 mph    
Max Gust Speed 23 mph    
Visibility 10 miles    
Events      
T = Trace of Precipitation, MM = Missing Value Source: NWS Daily Summary

Daily Weather History Graph

Daily Weather History Graph

Search for Another Location

Airport or City:

Trip Planner

Search our weather history database for the weather conditions in past years. The results will help you decide how hot, cold, wet, or windy it might be!

Date:

Astronomy

Jun. 07, 2014 Rise Set
Actual Time 5:23 AM PDT 7:55 PM PDT
Civil Twilight 4:53 AM PDT 8:25 PM PDT
Nautical Twilight 4:16 AM PDT 9:03 PM PDT
Astronomical Twilight 3:35 AM PDT 9:44 PM PDT
Moon 2:26 PM PDT (6/7) 1:37 AM PDT (6/7)
Length of Visible Light 15h 32m
Length of Day
14h 32m
Waxing Gibbous, 69% of the Moon is Illuminated
Jun 7
Waxing Gibbous
Jun 12
Full
Jun 19
Last Quarter
Jun 27
New
Jul 5
First Quarter

Hourly Weather History & Observations

Time (PDT) Temp. Dew Point Humidity Pressure Visibility Wind Dir Wind Speed Gust Speed Precip Events Conditions
12:56 AM 87.1 °F 23.0 °F 10% 29.55 in 10.0 mi South 16.1 mph - N/A   Clear
1:56 AM 84.0 °F 26.1 °F 12% 29.55 in 10.0 mi South 12.7 mph - N/A   Clear
2:56 AM 82.9 °F 28.9 °F 14% 29.55 in 10.0 mi South 12.7 mph - N/A   Clear
3:56 AM 81.0 °F 30.0 °F 16% 29.56 in 10.0 mi SSW 8.1 mph - N/A   Clear
4:56 AM 80.1 °F 30.0 °F 16% 29.57 in 10.0 mi SSW 8.1 mph - N/A   Clear
5:56 AM 77.0 °F 27.0 °F 16% 29.60 in 10.0 mi SSW 9.2 mph - N/A   Clear
6:56 AM 80.1 °F 24.1 °F 13% 29.61 in 10.0 mi SSW 9.2 mph - N/A   Clear
7:56 AM 84.9 °F 28.0 °F 13% 29.63 in 10.0 mi SSW 10.4 mph - N/A   Clear
8:56 AM 88.0 °F 21.9 °F 9% 29.64 in 10.0 mi West 4.6 mph - N/A   Clear
9:56 AM 91.0 °F 21.9 °F 8% 29.63 in 10.0 mi Calm Calm - N/A   Clear
10:56 AM 93.2 °F 23.0 °F 8% 29.72 in 10.0 mi Variable 6.9 mph - N/A   Clear
11:56 AM 97.0 °F 21.0 °F 6% 29.62 in 10.0 mi SW 3.5 mph - N/A   Partly Cloudy
12:56 PM 98.1 °F 17.1 °F 5% 29.60 in 10.0 mi SSE 5.8 mph - N/A   Partly Cloudy
1:56 PM 100.0 °F 15.1 °F 5% 29.57 in 10.0 mi South 10.4 mph 18.4 mph N/A   Partly Cloudy
2:56 PM 102.0 °F 10.0 °F 4% 29.55 in 10.0 mi East 6.9 mph - N/A   Partly Cloudy
3:56 PM 102.0 °F 8.1 °F 4% 29.54 in 10.0 mi SW 3.5 mph - N/A   Partly Cloudy
4:56 PM 102.0 °F 10.9 °F 4% 29.53 in 10.0 mi South 6.9 mph - N/A   Partly Cloudy
5:56 PM 102.0 °F 7.0 °F 4% 29.52 in 10.0 mi Variable 5.8 mph - N/A   Partly Cloudy
6:56 PM 100.9 °F 9.0 °F 4% 29.52 in 10.0 mi South 5.8 mph - N/A   Partly Cloudy
7:56 PM 99.0 °F 12.0 °F 4% 29.52 in 10.0 mi South 8.1 mph - N/A   Clear
8:56 PM 96.1 °F 16.0 °F 5% 29.53 in 10.0 mi South 13.8 mph - N/A   Clear
9:56 PM 93.9 °F 12.0 °F 5% 29.56 in 10.0 mi South 13.8 mph - N/A   Clear
10:56 PM 89.6 °F 14.0 °F 6% 29.65 in 10.0 mi SSW 10.4 mph - N/A   Clear
11:56 PM 90.0 °F 15.1 °F 6% 29.55 in 10.0 mi South 13.8 mph - N/A   Clear